contact:dominique.lefevre@mio.osupytheas.fr, maurice.libes@osupytheas.fr, didier.mallarino@osupytheas.fr
Project:EMSO http://www.emso-fr.org/EMSO-France
Depth: 2436.0 m
Title:EMSO Ligure Ouest : Data MII capteur CSTAR
DateTime,Latitude,Longitude,Instrument_Serial,Reference_Counts,Signal_Counts,Corrected_Signal_raw_counts,Calculated_Beam_c_inverse_meters,Internal_thermistor_counts
DateTime,Latitude,Longitude,Instrument_Serial,Reference_Counts,Signal_Counts,Corrected_Signal_raw_counts,Calculated_Beam_c_inverse_meters,Internal_thermistor_counts
2019-08-07T00:01:47,42.805,6.029,CST-1368DR,8394,11743,15435,0.047,551
2019-08-07T00:04:48,42.805,6.029,CST-1368DR,8394,11744,15435,0.047,551
2019-08-07T00:07:50,42.805,6.029,CST-1368DR,8394,11744,15435,0.047,551
2019-08-07T00:10:52,42.805,6.029,CST-1368DR,8394,11742,15433,0.047,551
2019-08-07T00:13:53,42.805,6.029,CST-1368DR,8394,11743,15434,0.047,550
2019-08-07T00:16:55,42.805,6.029,CST-1368DR,8394,11744,15435,0.047,551
2019-08-07T00:19:57,42.805,6.029,CST-1368DR,8394,11743,15434,0.047,551
2019-08-07T00:22:58,42.805,6.029,CST-1368DR,8394,11742,15433,0.047,551
2019-08-07T00:26:00,42.805,6.029,CST-1368DR,8394,11743,15434,0.047,551
2019-08-07T00:29:02,42.805,6.029,CST-1368DR,8394,11743,15434,0.047,551
2019-08-07T00:32:03,42.805,6.029,CST-1368DR,8394,11743,15434,0.047,551
2019-08-07T00:35:05,42.805,6.029,CST-1368DR,8394,11743,15434,0.047,551
2019-08-07T00:38:07,42.805,6.029,CST-1368DR,8394,11743,15434,0.047,551
2019-08-07T00:41:08,42.805,6.029,CST-1368DR,8394,11741,15432,0.047,551
2019-08-07T00:44:10,42.805,6.029,CST-1368DR,8394,11743,15434,0.047,551
2019-08-07T00:47:12,42.805,6.029,CST-1368DR,8394,11742,15433,0.047,551
2019-08-07T00:50:14,42.805,6.029,CST-1368DR,8393,11743,15436,0.046,551
2019-08-07T00:53:15,42.805,6.029,CST-1368DR,8394,11743,15434,0.047,551
2019-08-07T00:56:17,42.805,6.029,CST-1368DR,8393,11742,15435,0.047,551
2019-08-07T00:59:19,42.805,6.029,CST-1368DR,8393,11742,15435,0.047,551
2019-08-07T01:02:21,42.805,6.029,CST-1368DR,8393,11743,15436,0.046,551
2019-08-07T01:05:23,42.805,6.029,CST-1368DR,8393,11743,15436,0.046,551
2019-08-07T01:08:25,42.805,6.029,CST-1368DR,8393,11743,15436,0.046,551
2019-08-07T01:11:27,42.805,6.029,CST-1368DR,8393,11742,15434,0.047,551
2019-08-07T01:14:28,42.805,6.029,CST-1368DR,8393,11743,15435,0.047,551
2019-08-07T01:17:30,42.805,6.029,CST-1368DR,8393,11744,15437,0.046,551
2019-08-07T01:20:32,42.805,6.029,CST-1368DR,8393,11743,15436,0.046,551
2019-08-07T01:23:34,42.805,6.029,CST-1368DR,8393,11742,15435,0.047,551
2019-08-07T01:26:35,42.805,6.029,CST-1368DR,8393,11742,15434,0.047,551
2019-08-07T01:29:37,42.805,6.029,CST-1368DR,8393,11743,15435,0.047,551
2019-08-07T01:32:39,42.805,6.029,CST-1368DR,8393,11742,15435,0.047,551
2019-08-07T01:35:41,42.805,6.029,CST-1368DR,8393,11742,15434,0.047,551
2019-08-07T01:38:43,42.805,6.029,CST-1368DR,8393,11739,15431,0.048,551
2019-08-07T01:41:44,42.805,6.029,CST-1368DR,8393,11740,15432,0.047,551
2019-08-07T01:44:46,42.805,6.029,CST-1368DR,8393,11740,15432,0.047,551
2019-08-07T01:47:48,42.805,6.029,CST-1368DR,8393,11740,15432,0.047,551
2019-08-07T01:50:50,42.805,6.029,CST-1368DR,8393,11740,15432,0.047,551
2019-08-07T01:53:52,42.805,6.029,CST-1368DR,8393,11742,15434,0.047,551
2019-08-07T01:56:53,42.805,6.029,CST-1368DR,8393,11742,15434,0.047,551
2019-08-07T01:59:55,42.805,6.029,CST-1368DR,8393,11741,15434,0.047,551
2019-08-07T02:02:57,42.805,6.029,CST-1368DR,8393,11741,15434,0.047,551
2019-08-07T02:05:59,42.805,6.029,CST-1368DR,8393,11741,15433,0.047,551
2019-08-07T02:09:01,42.805,6.029,CST-1368DR,8393,11741,15434,0.047,551
2019-08-07T02:12:03,42.805,6.029,CST-1368DR,8393,11740,15431,0.048,551
2019-08-07T02:15:04,42.805,6.029,CST-1368DR,8393,11741,15434,0.047,551
2019-08-07T02:18:06,42.805,6.029,CST-1368DR,8393,11740,15432,0.047,551
2019-08-07T02:21:08,42.805,6.029,CST-1368DR,8393,11741,15434,0.047,551
2019-08-07T02:24:10,42.805,6.029,CST-1368DR,8393,11743,15435,0.047,551
2019-08-07T02:27:11,42.805,6.029,CST-1368DR,8393,11740,15432,0.047,551
2019-08-07T02:30:13,42.805,6.029,CST-1368DR,8393,11743,15435,0.047,551
2019-08-07T02:33:15,42.805,6.029,CST-1368DR,8393,11742,15435,0.047,551
2019-08-07T02:36:17,42.805,6.029,CST-1368DR,8393,11742,15434,0.047,551
2019-08-07T02:39:18,42.805,6.029,CST-1368DR,8393,11742,15434,0.047,551
2019-08-07T02:42:20,42.805,6.029,CST-1368DR,8393,11742,15434,0.047,551
2019-08-07T02:45:22,42.805,6.029,CST-1368DR,8393,11740,15432,0.047,551
2019-08-07T02:48:24,42.805,6.029,CST-1368DR,8393,11738,15429,0.048,551
2019-08-07T02:51:26,42.805,6.029,CST-1368DR,8393,11742,15434,0.047,551
2019-08-07T02:54:27,42.805,6.029,CST-1368DR,8392,11741,15435,0.047,551
2019-08-07T02:57:29,42.805,6.029,CST-1368DR,8393,11741,15433,0.047,551
2019-08-07T03:00:31,42.805,6.029,CST-1368DR,8392,11741,15434,0.047,551
2019-08-07T03:03:33,42.805,6.029,CST-1368DR,8393,11742,15434,0.047,551
2019-08-07T03:06:35,42.805,6.029,CST-1368DR,8392,11742,15436,0.046,551
2019-08-07T03:09:37,42.805,6.029,CST-1368DR,8392,11742,15436,0.046,551
2019-08-07T03:12:38,42.805,6.029,CST-1368DR,8392,11741,15435,0.047,551
2019-08-07T03:15:40,42.805,6.029,CST-1368DR,8392,11739,15432,0.047,551
2019-08-07T03:18:42,42.805,6.029,CST-1368DR,8392,11741,15434,0.047,550
2019-08-07T03:21:44,42.805,6.029,CST-1368DR,8392,11740,15433,0.047,551
2019-08-07T03:24:46,42.805,6.029,CST-1368DR,8392,11741,15434,0.047,551
2019-08-07T03:27:47,42.805,6.029,CST-1368DR,8392,11740,15434,0.047,551
2019-08-07T03:30:49,42.805,6.029,CST-1368DR,8392,11741,15435,0.047,551
2019-08-07T03:33:51,42.805,6.029,CST-1368DR,8392,11741,15435,0.047,551
2019-08-07T03:36:53,42.805,6.029,CST-1368DR,8392,11740,15433,0.047,550
2019-08-07T03:39:55,42.805,6.029,CST-1368DR,8392,11740,15433,0.047,551
2019-08-07T03:42:56,42.805,6.029,CST-1368DR,8392,11741,15434,0.047,551
2019-08-07T03:45:58,42.805,6.029,CST-1368DR,8392,11741,15435,0.047,551
2019-08-07T03:49:00,42.805,6.029,CST-1368DR,8392,11741,15434,0.047,551
2019-08-07T03:52:02,42.805,6.029,CST-1368DR,8392,11741,15435,0.047,550
2019-08-07T03:55:04,42.805,6.029,CST-1368DR,8392,11738,15431,0.048,551
2019-08-07T03:58:06,42.805,6.029,CST-1368DR,8392,11741,15434,0.047,551
2019-08-07T04:01:07,42.805,6.029,CST-1368DR,8392,11739,15432,0.047,551
2019-08-07T04:04:09,42.805,6.029,CST-1368DR,8392,11740,15434,0.047,551
2019-08-07T04:07:11,42.805,6.029,CST-1368DR,8392,11740,15433,0.047,551
2019-08-07T04:10:13,42.805,6.029,CST-1368DR,8392,11740,15434,0.047,551
2019-08-07T04:13:15,42.805,6.029,CST-1368DR,8392,11740,15433,0.047,551
2019-08-07T04:16:17,42.805,6.029,CST-1368DR,8392,11740,15433,0.047,551
2019-08-07T04:19:19,42.805,6.029,CST-1368DR,8392,11739,15432,0.047,551
2019-08-07T04:22:20,42.805,6.029,CST-1368DR,8392,11740,15434,0.047,551
2019-08-07T04:25:22,42.805,6.029,CST-1368DR,8392,11740,15434,0.047,551
2019-08-07T04:28:24,42.805,6.029,CST-1368DR,8392,11740,15434,0.047,551
2019-08-07T04:31:26,42.805,6.029,CST-1368DR,8392,11740,15434,0.047,551
2019-08-07T04:34:27,42.805,6.029,CST-1368DR,8392,11740,15433,0.047,551
2019-08-07T04:37:29,42.805,6.029,CST-1368DR,8392,11739,15433,0.047,551
2019-08-07T04:40:31,42.805,6.029,CST-1368DR,8392,11739,15432,0.047,551
2019-08-07T04:43:33,42.805,6.029,CST-1368DR,8392,11740,15433,0.047,551
2019-08-07T04:46:35,42.805,6.029,CST-1368DR,8392,11740,15433,0.047,550
2019-08-07T04:49:36,42.805,6.029,CST-1368DR,8392,11740,15433,0.047,551
2019-08-07T04:52:38,42.805,6.029,CST-1368DR,8392,11739,15432,0.047,551
2019-08-07T04:55:40,42.805,6.029,CST-1368DR,8392,11739,15432,0.047,550
2019-08-07T04:58:42,42.805,6.029,CST-1368DR,8392,11739,15432,0.047,551
2019-08-07T05:01:44,42.805,6.029,CST-1368DR,8392,11738,15431,0.048,551
2019-08-07T05:04:45,42.805,6.029,CST-1368DR,8392,11739,15432,0.047,551
2019-08-07T05:07:47,42.805,6.029,CST-1368DR,8392,11739,15432,0.047,551
2019-08-07T05:10:49,42.805,6.029,CST-1368DR,8392,11740,15433,0.047,550
2019-08-07T05:13:51,42.805,6.029,CST-1368DR,8392,11737,15430,0.048,550
2019-08-07T05:16:52,42.805,6.029,CST-1368DR,8392,11739,15432,0.047,551
2019-08-07T05:19:54,42.805,6.029,CST-1368DR,8391,11738,15433,0.047,551
2019-08-07T05:22:56,42.805,6.029,CST-1368DR,8391,11739,15434,0.047,551
2019-08-07T05:25:58,42.805,6.029,CST-1368DR,8391,11738,15432,0.047,551
2019-08-07T05:29:00,42.805,6.029,CST-1368DR,8392,11738,15431,0.048,551
2019-08-07T05:32:01,42.805,6.029,CST-1368DR,8391,11738,15433,0.047,551
2019-08-07T05:35:03,42.805,6.029,CST-1368DR,8392,11739,15432,0.047,551
2019-08-07T05:38:05,42.805,6.029,CST-1368DR,8391,11739,15434,0.047,551
2019-08-07T05:41:07,42.805,6.029,CST-1368DR,8391,11739,15433,0.047,551
2019-08-07T05:44:09,42.805,6.029,CST-1368DR,8391,11739,15434,0.047,550
2019-08-07T05:47:10,42.805,6.029,CST-1368DR,8391,11738,15433,0.047,551
2019-08-07T05:50:12,42.805,6.029,CST-1368DR,8391,11740,15435,0.047,551
2019-08-07T05:53:14,42.805,6.029,CST-1368DR,8391,11738,15432,0.047,551
2019-08-07T05:56:16,42.805,6.029,CST-1368DR,8391,11735,15429,0.048,550
2019-08-07T05:59:18,42.805,6.029,CST-1368DR,8391,11739,15433,0.047,551
2019-08-07T06:02:19,42.805,6.029,CST-1368DR,8391,11739,15433,0.047,551
2019-08-07T06:05:21,42.805,6.029,CST-1368DR,8391,11738,15432,0.047,551
2019-08-07T06:08:23,42.805,6.029,CST-1368DR,8391,11738,15433,0.047,551
2019-08-07T06:11:25,42.805,6.029,CST-1368DR,8391,11738,15433,0.047,551
2019-08-07T06:14:27,42.805,6.029,CST-1368DR,8391,11738,15433,0.047,551
2019-08-07T06:17:29,42.805,6.029,CST-1368DR,8391,11737,15431,0.048,551
2019-08-07T06:20:31,42.805,6.029,CST-1368DR,8391,11736,15431,0.048,551
2019-08-07T06:23:32,42.805,6.029,CST-1368DR,8391,11738,15433,0.047,551
2019-08-07T06:26:34,42.805,6.029,CST-1368DR,8391,11737,15432,0.047,551
2019-08-07T06:29:36,42.805,6.029,CST-1368DR,8391,11738,15432,0.047,551
2019-08-07T06:32:38,42.805,6.029,CST-1368DR,8391,11738,15433,0.047,551
2019-08-07T06:35:40,42.805,6.029,CST-1368DR,8391,11735,15429,0.048,551
2019-08-07T06:38:41,42.805,6.029,CST-1368DR,8391,11738,15433,0.047,551
2019-08-07T06:41:43,42.805,6.029,CST-1368DR,8391,11737,15432,0.047,551
2019-08-07T06:44:44,42.805,6.029,CST-1368DR,8391,11737,15431,0.048,551
2019-08-07T06:47:46,42.805,6.029,CST-1368DR,8391,11737,15431,0.048,551
2019-08-07T06:50:48,42.805,6.029,CST-1368DR,8391,11737,15431,0.048,551
2019-08-07T06:53:49,42.805,6.029,CST-1368DR,8391,11738,15432,0.047,551
2019-08-07T06:56:51,42.805,6.029,CST-1368DR,8391,11737,15431,0.048,551
2019-08-07T06:59:52,42.805,6.029,CST-1368DR,8391,11737,15431,0.048,551
2019-08-07T07:02:54,42.805,6.029,CST-1368DR,8391,11737,15432,0.047,551
2019-08-07T07:05:56,42.805,6.029,CST-1368DR,8391,11737,15432,0.047,551
2019-08-07T07:08:57,42.805,6.029,CST-1368DR,8391,11737,15432,0.047,551
2019-08-07T07:11:59,42.805,6.029,CST-1368DR,8391,11738,15433,0.047,551
2019-08-07T07:15:01,42.805,6.029,CST-1368DR,8391,11737,15431,0.048,551
2019-08-07T07:18:02,42.805,6.029,CST-1368DR,8391,11737,15431,0.048,551
2019-08-07T07:21:04,42.805,6.029,CST-1368DR,8391,11737,15432,0.047,551
2019-08-07T07:24:06,42.805,6.029,CST-1368DR,8391,11737,15432,0.047,551
2019-08-07T07:27:07,42.805,6.029,CST-1368DR,8391,11737,15431,0.048,551
2019-08-07T07:30:09,42.805,6.029,CST-1368DR,8391,11736,15431,0.048,551
2019-08-07T07:33:10,42.805,6.029,CST-1368DR,8391,11737,15431,0.048,551
2019-08-07T07:36:12,42.805,6.029,CST-1368DR,8391,11736,15431,0.048,551
2019-08-07T07:39:14,42.805,6.029,CST-1368DR,8391,11737,15431,0.048,551
2019-08-07T07:42:15,42.805,6.029,CST-1368DR,8390,11736,15432,0.047,551
2019-08-07T07:45:17,42.805,6.029,CST-1368DR,8390,11736,15431,0.048,551
2019-08-07T07:48:19,42.805,6.029,CST-1368DR,8390,11735,15431,0.048,551
2019-08-07T07:51:20,42.805,6.029,CST-1368DR,8390,11736,15432,0.047,550
2019-08-07T07:54:22,42.805,6.029,CST-1368DR,8390,11736,15432,0.047,550
2019-08-07T07:57:24,42.805,6.029,CST-1368DR,8390,11732,15427,0.049,551
2019-08-07T08:00:25,42.805,6.029,CST-1368DR,8390,11737,15433,0.047,551
2019-08-07T08:03:27,42.805,6.029,CST-1368DR,8390,11736,15431,0.048,551
2019-08-07T08:06:29,42.805,6.029,CST-1368DR,8390,11735,15431,0.048,550
2019-08-07T08:09:30,42.805,6.029,CST-1368DR,8390,11736,15432,0.047,551
2019-08-07T08:12:32,42.805,6.029,CST-1368DR,8390,11737,15433,0.047,551
2019-08-07T08:15:34,42.805,6.029,CST-1368DR,8390,11736,15432,0.047,551
2019-08-07T08:18:35,42.805,6.029,CST-1368DR,8390,11736,15432,0.047,551
2019-08-07T08:21:37,42.805,6.029,CST-1368DR,8390,11737,15433,0.047,551
2019-08-07T08:24:38,42.805,6.029,CST-1368DR,8390,11736,15432,0.047,551
2019-08-07T08:27:40,42.805,6.029,CST-1368DR,8390,11736,15432,0.047,551
2019-08-07T08:30:42,42.805,6.029,CST-1368DR,8390,11736,15432,0.047,550
2019-08-07T08:33:43,42.805,6.029,CST-1368DR,8390,11736,15431,0.048,551
2019-08-07T08:36:45,42.805,6.029,CST-1368DR,8390,11736,15431,0.048,550
2019-08-07T08:39:47,42.805,6.029,CST-1368DR,8390,11736,15432,0.047,551
2019-08-07T08:42:48,42.805,6.029,CST-1368DR,8390,11736,15432,0.047,551
2019-08-07T08:45:50,42.805,6.029,CST-1368DR,8390,11736,15432,0.047,551
2019-08-07T08:48:52,42.805,6.029,CST-1368DR,8390,11736,15431,0.048,551
2019-08-07T08:51:53,42.805,6.029,CST-1368DR,8390,11735,15430,0.048,551
2019-08-07T08:54:55,42.805,6.029,CST-1368DR,8390,11736,15431,0.048,550
2019-08-07T08:57:57,42.805,6.029,CST-1368DR,8390,11736,15432,0.047,551
2019-08-07T09:00:58,42.805,6.029,CST-1368DR,8390,11735,15431,0.048,551
2019-08-07T09:04:00,42.805,6.029,CST-1368DR,8390,11735,15431,0.048,551
2019-08-07T09:07:02,42.805,6.029,CST-1368DR,8390,11736,15432,0.047,551
2019-08-07T09:10:03,42.805,6.029,CST-1368DR,8390,11736,15432,0.047,551
2019-08-07T09:13:05,42.805,6.029,CST-1368DR,8390,11737,15433,0.047,551
2019-08-07T09:16:06,42.805,6.029,CST-1368DR,8390,11736,15432,0.047,551
2019-08-07T09:19:08,42.805,6.029,CST-1368DR,8390,11736,15431,0.048,550
2019-08-07T09:22:10,42.805,6.029,CST-1368DR,8390,11734,15429,0.048,551
2019-08-07T09:25:12,42.805,6.029,CST-1368DR,8390,11736,15432,0.047,551
2019-08-07T09:28:14,42.805,6.029,CST-1368DR,8390,11736,15432,0.047,551
2019-08-07T09:31:15,42.805,6.029,CST-1368DR,8390,11736,15432,0.047,551
2019-08-07T09:34:17,42.805,6.029,CST-1368DR,8390,11736,15432,0.047,551
2019-08-07T09:37:19,42.805,6.029,CST-1368DR,8390,11736,15432,0.047,551
2019-08-07T09:40:20,42.805,6.029,CST-1368DR,8390,11734,15429,0.048,551
2019-08-07T09:43:22,42.805,6.029,CST-1368DR,8390,11737,15433,0.047,551
2019-08-07T09:46:24,42.805,6.029,CST-1368DR,8390,11735,15430,0.048,551
2019-08-07T09:49:25,42.805,6.029,CST-1368DR,8390,11736,15432,0.047,551
2019-08-07T09:52:27,42.805,6.029,CST-1368DR,8390,11736,15432,0.047,551
2019-08-07T09:55:29,42.805,6.029,CST-1368DR,8389,11735,15432,0.047,551
2019-08-07T09:58:30,42.805,6.029,CST-1368DR,8389,11736,15433,0.047,550
2019-08-07T10:01:32,42.805,6.029,CST-1368DR,8389,11734,15431,0.048,551
2019-08-07T10:04:33,42.805,6.029,CST-1368DR,8389,11736,15433,0.047,551
2019-08-07T10:07:35,42.805,6.029,CST-1368DR,8389,11735,15432,0.047,551
2019-08-07T10:10:37,42.805,6.029,CST-1368DR,8389,11736,15433,0.047,551
2019-08-07T10:13:38,42.805,6.029,CST-1368DR,8389,11736,15433,0.047,550
2019-08-07T10:16:40,42.805,6.029,CST-1368DR,8389,11735,15433,0.047,551
2019-08-07T10:19:42,42.805,6.029,CST-1368DR,8389,11734,15431,0.048,551
2019-08-07T10:22:43,42.805,6.029,CST-1368DR,8389,11735,15433,0.047,551
2019-08-07T10:25:45,42.805,6.029,CST-1368DR,8389,11706,15394,0.057,551
2019-08-07T10:28:47,42.805,6.029,CST-1368DR,8389,11735,15432,0.047,551
2019-08-07T10:31:48,42.805,6.029,CST-1368DR,8389,11736,15433,0.047,551
2019-08-07T10:34:50,42.805,6.029,CST-1368DR,8389,11734,15431,0.048,551
2019-08-07T10:37:52,42.805,6.029,CST-1368DR,8389,11733,15430,0.048,551
2019-08-07T10:40:53,42.805,6.029,CST-1368DR,8389,11730,15426,0.049,551
2019-08-07T10:43:55,42.805,6.029,CST-1368DR,8389,11735,15432,0.047,551
2019-08-07T10:46:57,42.805,6.029,CST-1368DR,8389,11731,15426,0.049,551
2019-08-07T10:49:58,42.805,6.029,CST-1368DR,8389,11732,15428,0.048,551
2019-08-07T10:53:00,42.805,6.029,CST-1368DR,8389,11733,15430,0.048,551
2019-08-07T10:56:02,42.805,6.029,CST-1368DR,8389,11735,15433,0.047,551
2019-08-07T10:59:03,42.805,6.029,CST-1368DR,8389,11735,15432,0.047,551
2019-08-07T11:02:05,42.805,6.029,CST-1368DR,8389,11733,15430,0.048,551
2019-08-07T11:05:06,42.805,6.029,CST-1368DR,8389,11735,15432,0.047,551
2019-08-07T11:08:08,42.805,6.029,CST-1368DR,8389,11734,15431,0.048,551
2019-08-07T11:11:10,42.805,6.029,CST-1368DR,8389,11735,15432,0.047,551
2019-08-07T11:14:11,42.805,6.029,CST-1368DR,8389,11735,15432,0.047,551
2019-08-07T11:17:13,42.805,6.029,CST-1368DR,8389,11736,15434,0.047,551
2019-08-07T11:20:15,42.805,6.029,CST-1368DR,8389,11734,15430,0.048,550
2019-08-07T11:23:16,42.805,6.029,CST-1368DR,8389,11735,15432,0.047,551
2019-08-07T11:26:18,42.805,6.029,CST-1368DR,8389,11735,15432,0.047,551
2019-08-07T11:29:20,42.805,6.029,CST-1368DR,8389,11734,15431,0.048,551
2019-08-07T11:32:21,42.805,6.029,CST-1368DR,8389,11734,15431,0.048,551
2019-08-07T11:35:23,42.805,6.029,CST-1368DR,8389,11734,15431,0.048,551
2019-08-07T11:38:25,42.805,6.029,CST-1368DR,8389,11734,15431,0.048,551
2019-08-07T11:41:26,42.805,6.029,CST-1368DR,8389,11734,15431,0.048,551
2019-08-07T11:44:28,42.805,6.029,CST-1368DR,8389,11735,15432,0.047,551
2019-08-07T11:47:30,42.805,6.029,CST-1368DR,8389,11735,15432,0.047,551
2019-08-07T11:50:31,42.805,6.029,CST-1368DR,8389,11735,15432,0.047,551
2019-08-07T11:53:33,42.805,6.029,CST-1368DR,8389,11735,15432,0.047,551
2019-08-07T11:56:34,42.805,6.029,CST-1368DR,8389,11734,15431,0.048,551
2019-08-07T11:59:36,42.805,6.029,CST-1368DR,8388,11734,15432,0.047,551
2019-08-07T12:02:38,42.805,6.029,CST-1368DR,8388,11733,15431,0.048,551
2019-08-07T12:05:40,42.805,6.029,CST-1368DR,8389,11734,15431,0.048,550
2019-08-07T12:08:41,42.805,6.029,CST-1368DR,8389,11735,15432,0.047,551
2019-08-07T12:11:43,42.805,6.029,CST-1368DR,8389,11733,15430,0.048,551
2019-08-07T12:14:45,42.805,6.029,CST-1368DR,8389,11733,15429,0.048,551
2019-08-07T12:17:46,42.805,6.029,CST-1368DR,8388,11733,15432,0.047,551
2019-08-07T12:20:48,42.805,6.029,CST-1368DR,8388,11731,15429,0.048,551
2019-08-07T12:23:50,42.805,6.029,CST-1368DR,8388,11733,15431,0.048,551
2019-08-07T12:26:51,42.805,6.029,CST-1368DR,8388,11734,15432,0.047,551
2019-08-07T12:29:53,42.805,6.029,CST-1368DR,8388,11735,15433,0.047,551
2019-08-07T12:32:55,42.805,6.029,CST-1368DR,8388,11733,15432,0.047,551
2019-08-07T12:35:56,42.805,6.029,CST-1368DR,8388,11734,15432,0.047,551
2019-08-07T12:38:58,42.805,6.029,CST-1368DR,8388,11734,15432,0.047,551
2019-08-07T12:42:00,42.805,6.029,CST-1368DR,8388,11734,15433,0.047,551
2019-08-07T12:45:01,42.805,6.029,CST-1368DR,8388,11731,15429,0.048,551
2019-08-07T12:48:03,42.805,6.029,CST-1368DR,8388,11734,15432,0.047,551
2019-08-07T12:51:04,42.805,6.029,CST-1368DR,8388,11734,15432,0.047,551
2019-08-07T12:54:06,42.805,6.029,CST-1368DR,8388,11732,15430,0.048,551
2019-08-07T12:57:08,42.805,6.029,CST-1368DR,8388,11734,15432,0.047,551
2019-08-07T13:00:09,42.805,6.029,CST-1368DR,8388,11734,15432,0.047,551
2019-08-07T13:03:11,42.805,6.029,CST-1368DR,8388,11733,15431,0.048,551
2019-08-07T13:06:13,42.805,6.029,CST-1368DR,8388,11735,15434,0.047,551
2019-08-07T13:09:14,42.805,6.029,CST-1368DR,8388,11733,15432,0.047,551
2019-08-07T13:12:16,42.805,6.029,CST-1368DR,8388,11733,15431,0.048,551
2019-08-07T13:15:18,42.805,6.029,CST-1368DR,8388,11731,15429,0.048,551
2019-08-07T13:18:19,42.805,6.029,CST-1368DR,8388,11733,15432,0.047,551
2019-08-07T13:21:21,42.805,6.029,CST-1368DR,8388,11735,15433,0.047,551
2019-08-07T13:24:23,42.805,6.029,CST-1368DR,8388,11734,15432,0.047,550
2019-08-07T13:27:24,42.805,6.029,CST-1368DR,8388,11733,15431,0.048,551
2019-08-07T13:30:26,42.805,6.029,CST-1368DR,8388,11733,15431,0.048,550
2019-08-07T13:33:28,42.805,6.029,CST-1368DR,8388,11734,15432,0.047,551
2019-08-07T13:36:29,42.805,6.029,CST-1368DR,8387,11735,15435,0.047,551
2019-08-07T13:39:31,42.805,6.029,CST-1368DR,8388,11733,15432,0.047,551
2019-08-07T13:42:33,42.805,6.029,CST-1368DR,8388,11734,15432,0.047,551
2019-08-07T13:45:34,42.805,6.029,CST-1368DR,8388,11734,15432,0.047,551
2019-08-07T13:48:36,42.805,6.029,CST-1368DR,8388,11733,15432,0.047,551
2019-08-07T13:51:38,42.805,6.029,CST-1368DR,8388,11735,15434,0.047,550
2019-08-07T13:54:39,42.805,6.029,CST-1368DR,8387,11730,15429,0.048,551
2019-08-07T13:57:41,42.805,6.029,CST-1368DR,8387,11733,15433,0.047,551
2019-08-07T14:00:43,42.805,6.029,CST-1368DR,8387,11734,15434,0.047,551
2019-08-07T14:03:44,42.805,6.029,CST-1368DR,8387,11735,15435,0.047,551
2019-08-07T14:06:46,42.805,6.029,CST-1368DR,8387,11734,15434,0.047,551
2019-08-07T14:09:47,42.805,6.029,CST-1368DR,8387,11730,15429,0.048,551
2019-08-07T14:12:49,42.805,6.029,CST-1368DR,8387,11734,15434,0.047,550
2019-08-07T14:15:51,42.805,6.029,CST-1368DR,8387,11732,15431,0.048,551
2019-08-07T14:18:52,42.805,6.029,CST-1368DR,8387,11734,15434,0.047,551
2019-08-07T14:21:54,42.805,6.029,CST-1368DR,8387,11733,15433,0.047,551
2019-08-07T14:24:56,42.805,6.029,CST-1368DR,8387,11734,15434,0.047,551
2019-08-07T14:27:57,42.805,6.029,CST-1368DR,8387,11734,15434,0.047,550
2019-08-07T14:30:59,42.805,6.029,CST-1368DR,8387,11732,15431,0.048,551
2019-08-07T14:34:01,42.805,6.029,CST-1368DR,8387,11733,15433,0.047,551
2019-08-07T14:37:02,42.805,6.029,CST-1368DR,8387,11733,15433,0.047,551
2019-08-07T14:40:04,42.805,6.029,CST-1368DR,8387,11734,15434,0.047,551
2019-08-07T14:43:06,42.805,6.029,CST-1368DR,8387,11732,15432,0.047,551
2019-08-07T14:46:07,42.805,6.029,CST-1368DR,8387,11733,15433,0.047,551
2019-08-07T14:49:09,42.805,6.029,CST-1368DR,8387,11733,15433,0.047,551
2019-08-07T14:52:11,42.805,6.029,CST-1368DR,8387,11733,15432,0.047,551
2019-08-07T14:55:12,42.805,6.029,CST-1368DR,8387,11734,15434,0.047,550
2019-08-07T14:58:14,42.805,6.029,CST-1368DR,8387,11733,15433,0.047,551
2019-08-07T15:01:16,42.805,6.029,CST-1368DR,8387,11732,15431,0.048,551
2019-08-07T15:04:17,42.805,6.029,CST-1368DR,8387,11734,15434,0.047,551
2019-08-07T15:07:19,42.805,6.029,CST-1368DR,8387,11733,15432,0.047,550
2019-08-07T15:10:21,42.805,6.029,CST-1368DR,8387,11730,15429,0.048,550
2019-08-07T15:13:22,42.805,6.029,CST-1368DR,8387,11733,15432,0.047,551
2019-08-07T15:16:24,42.805,6.029,CST-1368DR,8387,11732,15432,0.047,551
2019-08-07T15:19:26,42.805,6.029,CST-1368DR,8387,11732,15432,0.047,551
2019-08-07T15:22:27,42.805,6.029,CST-1368DR,8387,11733,15433,0.047,551
2019-08-07T15:25:29,42.805,6.029,CST-1368DR,8387,11733,15432,0.047,551
2019-08-07T15:28:31,42.805,6.029,CST-1368DR,8386,11733,15435,0.047,551
2019-08-07T15:31:32,42.805,6.029,CST-1368DR,8387,11733,15433,0.047,551
2019-08-07T15:34:34,42.805,6.029,CST-1368DR,8386,11734,15436,0.046,551
2019-08-07T15:37:36,42.805,6.029,CST-1368DR,8386,11732,15434,0.047,551
2019-08-07T15:40:37,42.805,6.029,CST-1368DR,8387,11734,15434,0.047,551
2019-08-07T15:43:39,42.805,6.029,CST-1368DR,8387,11733,15433,0.047,551
2019-08-07T15:46:41,42.805,6.029,CST-1368DR,8387,11733,15433,0.047,550
2019-08-07T15:49:42,42.805,6.029,CST-1368DR,8386,11732,15434,0.047,551
2019-08-07T15:52:44,42.805,6.029,CST-1368DR,8386,11733,15435,0.047,551
2019-08-07T15:55:45,42.805,6.029,CST-1368DR,8386,11734,15435,0.047,551
2019-08-07T15:58:47,42.805,6.029,CST-1368DR,8386,11733,15435,0.047,551
2019-08-07T16:01:49,42.805,6.029,CST-1368DR,8386,11732,15434,0.047,551
2019-08-07T16:04:50,42.805,6.029,CST-1368DR,8386,11732,15434,0.047,551
2019-08-07T16:07:52,42.805,6.029,CST-1368DR,8386,11732,15434,0.047,551
2019-08-07T16:10:54,42.805,6.029,CST-1368DR,8386,11733,15435,0.047,551
2019-08-07T16:13:55,42.805,6.029,CST-1368DR,8386,11732,15434,0.047,551
2019-08-07T16:16:57,42.805,6.029,CST-1368DR,8386,11730,15431,0.048,551
2019-08-07T16:19:59,42.805,6.029,CST-1368DR,8386,11733,15434,0.047,551
2019-08-07T16:23:00,42.805,6.029,CST-1368DR,8386,11733,15435,0.047,551
2019-08-07T16:26:02,42.805,6.029,CST-1368DR,8386,11733,15434,0.047,551
2019-08-07T16:29:04,42.805,6.029,CST-1368DR,8386,11733,15434,0.047,551
2019-08-07T16:32:05,42.805,6.029,CST-1368DR,8386,11733,15434,0.047,551
2019-08-07T16:35:07,42.805,6.029,CST-1368DR,8386,11733,15434,0.047,551
2019-08-07T16:38:08,42.805,6.029,CST-1368DR,8386,11733,15434,0.047,551